Location: Houhaj�rvi
(61.2667°N, 23.0167°E)
Time: 17:47:44
(UTC+00:00)

Okean O Rocket - Pass Details

Date: 13 December 2019
Orbit: 624 x 644 km, 98.2° (Epoch: 21 January)

Event Time Altitude Azimuth Distance (km) Brightness Sun altitude
Rises 14:46:38 0° 164° (SSE) 2,901 5.2 -9.6°
Reaches altitude 10° 14:48:49 10° 166° (SSE) 1,999 4.4 -9.8°
Maximum altitude 14:53:10 78° 253° (WSW) 647 1.8 -10.2°
Drops below altitude 10° 14:57:34 10° 340° (NNW) 2,018 4.1 -10.7°
Sets 14:59:47 0° 342° (NNW) 2,932 4.9 -10.9°
